Central Victoria, Mexico

1:25 AM on July 26, 2017 (GMT +0000)
Central Victoria

Weather History for 76649 - January, 2014

Change the Weather History Date:

Sunday, January 12, 2014

  Actual Average Record
Temperature  
Mean Temperature 72 °F -  
Max Temperature 82 °F 80 °F - ()
Min Temperature 62 °F 69 °F - ()
Cooling Degree Days 7    
Growing Degree Days 22 (Base 50)    
Moisture  
Dew Point 68 °F    
Average Humidity 91    
Maximum Humidity 100    
Minimum Humidity 66    
Precipitation  
Precipitation 0.00 in - - ()
Sea Level Pressure  
Sea Level Pressure 30.07 in    
Wind  
Wind Speed 2 mph ()    
Max Wind Speed 10 mph    
Max Gust Speed -    
Visibility 7.4 miles    
Events      
T = Trace of Precipitation, MM = Missing Value Source: Averaged Metar Reports

Daily Weather History Graph

Daily Weather History Graph

Search for Another Location

Airport or City:

Trip Planner

Search our weather history database for the weather conditions in past years. The results will help you decide how hot, cold, wet, or windy it might be!

Date:

Astronomy

Jan. 12, 2014 Rise Set
Actual Time 12:28 PM UTC 11:27 PM UTC
Civil Twilight 12:04 PM UTC 11:50 PM UTC
Nautical Twilight 11:37 AM UTC 12:18 AM UTC
Astronomical Twilight 11:10 AM UTC 12:45 AM UTC
Moon 8:51 PM UTC (1/12) 9:29 AM UTC (1/12)
Length of Visible Light 11h 46m
Length of Day
10h 58m
Waxing Gibbous, 88% of the Moon is Illuminated
Jan 12
Waxing Gibbous
Jan 16
Full
Jan 24
Last Quarter
Jan 30
New
Feb 6
First Quarter

Hourly Weather History & Observations

Time (GMT) Temp. Heat Index Dew Point Humidity Pressure Visibility Wind Dir Wind Speed Gust Speed Precip Events Conditions
12:46 AM 69.8 °F - 69.8 °F 100% 30.05 in 7.0 mi Calm Calm - N/A   Partly Cloudy
1:49 AM 69.8 °F - 69.8 °F 100% 30.06 in 7.0 mi Calm Calm - N/A   Partly Cloudy
2:49 AM 68.0 °F - 68.0 °F 100% 30.11 in 7.0 mi Calm Calm - N/A   Scattered Clouds
3:47 AM 66.2 °F - 66.2 °F 100% 30.08 in 7.0 mi Calm Calm - N/A   Scattered Clouds
4:47 AM 66.2 °F - 66.2 °F 100% 30.07 in 7.0 mi Calm Calm - N/A   Scattered Clouds
5:42 AM 66.2 °F - 66.2 °F 100% 30.05 in 7.0 mi Calm Calm - N/A   Scattered Clouds
6:40 AM 66.2 °F - 66.2 °F 100% 30.06 in 7.0 mi Calm Calm - N/A   Scattered Clouds
9:17 AM 66.2 °F - 66.2 °F 100% 30.07 in 7.0 mi Calm Calm - N/A   Scattered Clouds
9:45 AM 62.6 °F - 62.6 °F 100% 30.04 in 7.0 mi Calm Calm - N/A   Scattered Clouds
10:42 AM 62.6 °F - 62.6 °F 100% 30.05 in 7.0 mi Calm Calm - N/A   Scattered Clouds
11:47 AM 64.4 °F - 64.4 °F 100% 30.03 in 7.0 mi Calm Calm - N/A   Scattered Clouds
12:42 PM 64.4 °F - 64.4 °F 100% 30.07 in 7.0 mi Calm Calm - N/A   Scattered Clouds
1:43 PM 68.0 °F - 68.0 °F 100% 30.10 in 8.0 mi Calm Calm - N/A   Scattered Clouds
2:41 PM 73.4 °F - 71.6 °F 94% 30.15 in 8.0 mi East 6.9 mph - N/A   Scattered Clouds
3:40 PM 77.0 °F - 71.6 °F 83% 30.12 in 8.0 mi East 8.1 mph - N/A   Scattered Clouds
4:42 PM 78.8 °F - 69.8 °F 74% 30.11 in 8.0 mi ESE 9.2 mph - N/A   Scattered Clouds
5:43 PM 78.8 °F - 69.8 °F 74% 30.06 in 8.0 mi East 9.2 mph - N/A   Scattered Clouds
6:40 PM 78.8 °F - 69.8 °F 74% 30.05 in 8.0 mi SE 9.2 mph - N/A   Scattered Clouds
7:40 PM 78.8 °F - 69.8 °F 74% 30.03 in 8.0 mi SE 10.4 mph - N/A   Scattered Clouds
8:48 PM 78.8 °F - 69.8 °F 74% 30.06 in 8.0 mi SE 6.9 mph - N/A   Scattered Clouds
9:50 PM 82.4 °F 86.3 °F 69.8 °F 66% 30.03 in 8.0 mi ESE 8.1 mph - N/A   Scattered Clouds
10:42 PM 75.2 °F - 69.8 °F 83% 30.03 in 8.0 mi East 4.6 mph - N/A   Scattered Clouds
11:51 PM 69.8 °F - 69.8 °F 100% 30.03 in 7.0 mi East 3.5 mph - N/A   Scattered Clouds